VE3ZEB-1 Weather Reports


Display with metric or nautical units.
time (UTC)temp
F
wind
direction
speed
MPH
gust
MPH
rain 1hr
in
rain 24hr
in
rain mn
in
humidity
%
barometer
mb
20260510221029 59 349 3.0 6.0 0.00 0.00 0.00 35 679.8
20260510220049 59 330 3.0 4.0 0.00 0.00 0.00 35 679.8
20260510215029 60 339 2.0 5.0 0.00 0.00 0.00 34 679.8
20260510214029 60 344 2.0 5.0 0.00 0.00 0.00 34 679.8
20260510213029 59 328 3.0 8.0 0.00 0.00 0.00 34 679.8
20260510212029 59 331 6.0 10.0 0.00 0.00 0.00 35 679.8
20260510211030 59 330 5.0 9.0 0.00 0.00 0.00 36 679.8
20260510210030 59 334 3.0 7.0 0.00 0.00 0.00 36 679.8
20260510205030 59 325 4.0 9.0 0.00 0.00 0.00 37 679.8
20260510204211 59 335 5.0 13.0 0.00 0.00 0.00 36 679.8
20260510203030 59 323 4.0 9.0 0.00 0.00 0.00 38 679.8
20260510202051 60 328 4.0 10.0 0.00 0.01 0.00 36 679.8
20260510201030 60 331 4.0 11.0 0.00 0.08 0.00 38 679.8
20260510200050 60 324 4.0 9.0 0.00 0.15 0.00 38 679.8
20260510195031 60 324 3.0 6.0 0.00 0.18 0.00 38 679.8
20260510194031 60 333 3.0 6.0 0.00 0.18 0.00 38 679.8
20260510193031 60 322 5.0 10.0 0.00 0.18 0.00 38 679.8
20260510192046 59 333 4.0 6.0 0.00 0.18 0.00 40 679.8
20260510191031 59 324 4.0 8.0 0.00 0.18 0.00 41 679.8
20260510190031 59 331 4.0 6.0 0.00 0.18 0.00 41 679.8
20260510185032 59 338 6.0 12.0 0.00 0.18 0.00 41 679.8
20260510184031 59 319 4.0 7.0 0.00 0.18 0.00 42 679.8
20260510183032 58 330 5.0 8.0 0.00 0.18 0.00 42 679.8
20260510182032 59 356 3.0 6.0 0.00 0.18 0.00 41 679.8
20260510181017 59 320 3.0 8.0 0.00 0.18 0.00 42 679.8
20260510180017 59 330 4.0 6.0 0.00 0.18 0.00 42 679.8
20260510175017 60 325 4.0 7.0 0.00 0.18 0.00 42 679.8
20260510174017 59 330 4.0 10.0 0.00 0.18 0.00 42 679.8
20260510173018 60 333 4.0 7.0 0.00 0.18 0.00 41 679.8
20260510172018 60 338 4.0 7.0 0.00 0.18 0.00 38 679.8
20260510171038 62 336 2.0 6.0 0.00 0.18 0.00 40 679.8
20260510170038 62 341 3.0 6.0 0.00 0.18 0.00 39 679.8
20260510165018 63 322 5.0 10.0 0.00 0.18 0.00 39 679.8
20260510164018 63 323 5.0 10.0 0.00 0.18 0.00 38 679.9
20260510163018 63 334 6.0 10.0 0.00 0.18 0.00 39 679.8
20260510162019 62 335 4.0 7.0 0.00 0.18 0.00 38 679.8
20260510161018 62 7 5.0 7.0 0.00 0.18 0.00 37 679.8
20260510160018 63 349 3.0 5.0 0.00 0.18 0.00 38 679.8
20260510155019 63 317 6.0 8.0 0.00 0.18 0.00 39 679.8
20260510154019 63 321 4.0 9.0 0.00 0.18 0.00 39 679.8
20260510153019 63 341 4.0 9.0 0.00 0.18 0.00 40 679.8
20260510152019 62 322 3.0 7.0 0.00 0.18 0.00 41 679.8
20260510151020 61 330 3.0 6.0 0.00 0.18 0.00 43 679.8
20260510150019 60 325 4.0 6.0 0.00 0.18 0.00 44 679.7
20260510145040 60 348 5.0 7.0 0.00 0.18 0.00 43 679.7
20260510144020 58 321 4.0 7.0 0.00 0.18 0.00 48 679.7
20260510143100 57 337 3.0 7.0 0.00 0.18 0.00 51 679.6
20260510142020 54 326 3.0 4.0 0.00 0.18 0.00 54 679.6
20260510141100 53 320 2.0 3.0 0.00 0.18 0.00 56 679.5
20260510140020 51 345 2.0 4.0 0.00 0.18 0.00 58 679.5
20260510135020 50 348 4.0 6.0 0.00 0.18 0.00 60 679.5
20260510134020 49 340 2.0 6.0 0.00 0.18 0.00 59 679.5
20260510133021 49 327 4.0 8.0 0.00 0.18 0.00 61 679.5
20260510132021 49 326 4.0 7.0 0.00 0.18 0.00 64 679.4
20260510131021 48 338 2.0 4.0 0.00 0.18 0.00 66 679.4
20260510130041 48 324 4.0 5.0 0.00 0.18 0.00 66 679.4
20260510125022 47 327 3.0 7.0 0.00 0.18 0.00 68 679.4
20260510124021 46 328 4.0 8.0 0.00 0.18 0.00 68 679.4
20260510123022 46 339 3.0 6.0 0.00 0.18 0.00 69 679.4
20260510122022 45 322 3.0 7.0 0.00 0.18 0.00 72 679.3
20260510121021 44 330 4.0 10.0 0.00 0.18 0.00 76 679.3
20260510120022 42 330 3.0 4.0 0.00 0.18 0.00 77 679.3
20260510115022 41 334 2.0 4.0 0.00 0.18 0.00 77 679.3
20260510114022 40 321 2.0 5.0 0.00 0.18 0.00 77 679.2
20260510113017 39 324 3.0 5.0 0.00 0.18 0.00 77 679.2
20260510112037 38 319 3.0 6.0 0.00 0.18 0.00 77 679.2
20260510111018 38 320 3.0 6.0 0.00 0.18 0.00 77 679.2
20260510110018 37 319 3.0 5.0 0.00 0.18 0.00 77 679.2
20260510105038 37 316 3.0 5.0 0.00 0.18 0.00 77 679.2
20260510104018 36 319 3.0 6.0 0.00 0.18 0.00 77 679.2
20260510103038 36 319 2.0 4.0 0.00 0.18 0.00 77 679.2
20260510102018 36 314 3.0 5.0 0.00 0.18 0.00 77 679.2
20260510101018 36 317 3.0 4.0 0.00 0.18 0.00 77 679.2
20260510100019 36 315 3.0 5.0 0.00 0.18 0.00 77 679.2
20260510095018 36 310 2.0 3.0 0.00 0.18 0.00 77 679.2
20260510094016 36 319 3.0 5.0 0.00 0.18 0.00 77 679.2
20260510093017 36 322 2.0 4.0 0.00 0.18 0.00 77 679.2
20260510092037 37 313 2.0 3.0 0.00 0.18 0.00 77 679.2
20260510091017 37 307 2.0 3.0 0.00 0.18 0.00 77 679.2
20260510090019 37 313 2.0 3.0 0.00 0.18 0.00 76 679.2
20260510085019 38 320 1.0 2.0 0.00 0.18 0.00 76 679.2
20260510084019 38 318 1.0 2.0 0.00 0.18 0.00 75 679.2
20260510083019 38 316 1.0 2.0 0.00 0.18 0.00 75 679.2
20260510082020 38 318 1.0 3.0 0.00 0.18 0.00 75 679.2
20260510081038 39 317 1.0 2.0 0.00 0.18 0.00 74 679.2
20260510080018 39 331 1.0 1.0 0.00 0.18 0.00 74 679.2
20260510075018 39 337 1.0 2.0 0.00 0.18 0.00 73 679.2
20260510074018 40 322 1.0 3.0 0.00 0.18 0.00 73 679.3
20260510073018 40 336 1.0 2.0 0.00 0.18 0.00 72 679.3
20260510072018 41 353 2.0 3.0 0.00 0.18 0.00 71 679.3
20260510071018 41 355 2.0 3.0 0.00 0.18 0.00 71 679.3
20260510070018 41 352 2.0 4.0 0.00 0.18 0.00 70 679.3
20260510065019 42 351 2.0 5.0 0.00 0.18 0.00 71 679.3
20260510064019 42 358 2.0 6.0 0.00 0.18 0.00 72 679.3
20260510063019 42 352 1.0 2.0 0.00 0.18 0.00 71 679.3
20260510062019 43 9 2.0 3.0 0.00 0.18 0.00 71 679.3
20260510061019 43 1 1.0 2.0 0.00 0.18 0.00 71 679.3
20260510060019 43 39 0.0 2.0 0.00 0.18 0.00 70 679.3
20260510055020 44 353 2.0 3.0 0.00 0.18 0.00 69 679.3
20260510054019 44 2 2.0 4.0 0.00 0.18 0.00 69 679.4
20260510053020 45 355 2.0 5.0 0.00 0.18 0.00 68 679.4
20260510052020 45 359 2.0 4.0 0.00 0.20 0.00 68 679.4
20260510051020 45 353 2.0 4.0 0.00 0.21 0.00 68 679.4
20260510050021 46 7 2.0 5.0 0.00 0.21 0.00 68 679.4
20260510045020 46 341 1.0 2.0 0.00 0.24 0.00 68 679.4
20260510044020 46 4 1.0 3.0 0.00 0.24 0.00 68 679.4
20260510043021 47 327 2.0 3.0 0.00 0.24 0.00 70 679.4
20260510042021 47 357 2.0 6.0 0.00 0.24 0.00 70 679.4
20260510041021 48 357 2.0 3.0 0.00 0.24 0.00 69 679.4
20260510040021 48 43 1.0 2.0 0.00 0.24 0.00 68 679.4
20260510035021 48 39 0.0 2.0 0.00 0.24 0.24 66 679.5
20260510034041 48 17 1.0 3.0 0.00 0.24 0.24 66 679.5
20260510033022 49 16 1.0 3.0 0.00 0.24 0.24 66 679.5
20260510032022 49 355 1.0 3.0 0.00 0.24 0.24 66 679.5
20260510031042 50 0 1.0 2.0 0.00 0.24 0.24 65 679.5
20260510030022 50 8 1.0 3.0 0.00 0.24 0.24 65 679.5
20260510025022 50 359 1.0 3.0 0.00 0.24 0.24 65 679.5
20260510024042 51 28 0.0 2.0 0.00 0.24 0.24 65 679.5
20260510023022 51 359 1.0 4.0 0.00 0.24 0.24 65 679.5
20260510022022 52 8 1.0 3.0 0.00 0.24 0.24 66 679.5
20260510021043 52 27 2.0 4.0 0.00 0.24 0.24 66 679.5
20260510020023 52 21 1.0 3.0 0.00 0.24 0.24 66 679.5
20260510015023 53 2 3.0 5.0 0.00 0.24 0.24 69 679.5
20260510014023 53 1 2.0 4.0 0.00 0.24 0.24 69 679.6
20260510013023 54 355 3.0 5.0 0.00 0.24 0.24 68 679.6
20260510012024 54 354 3.0 5.0 0.00 0.24 0.24 68 679.6
20260510011023 55 350 3.0 6.0 0.00 0.24 0.24 66 679.6
20260510010024 55 349 2.0 4.0 0.00 0.24 0.24 70 679.6
20260510005024 56 334 1.0 2.0 0.00 0.24 0.24 71 679.6
20260510004024 57 304 0.0 1.0 0.00 0.24 0.24 70 679.6
20260510003016 58 355 0.0 2.0 0.00 0.24 0.24 68 679.6
20260510002024 58 359 1.0 3.0 0.00 0.24 0.24 68 679.6
20260510001057 59 331 1.0 3.0 0.00 0.24 0.24 73 679.7
20260510000016 59 333 0.0 1.0 0.00 0.24 0.24 77 679.7
20260509235016 59 351 0.0 2.0 0.00 0.24 0.24 77 679.7
20260509234017 59 222 3.0 4.0 0.00 0.24 0.24 77 679.7
20260509233037 60 226 2.0 4.0 0.00 0.24 0.24 77 679.7
20260509232025 59 221 3.0 4.0 0.00 0.24 0.24 77 679.7
20260509231025 59 225 1.0 3.0 0.00 0.24 0.24 77 679.7
20260509230025 60 223 3.0 5.0 0.00 0.24 0.24 77 679.7
20260509225026 60 205 4.0 6.0 0.00 0.24 0.24 77 679.7
20260509224018 60 210 3.0 5.0 0.00 0.24 0.24 77 679.7
20260509223018 60 194 4.0 8.0 0.00 0.24 0.24 77 679.7
20260509222018 60 199 4.0 7.0 0.00 0.24 0.24 77 679.7